TITAN 4 CENTAUR R/B, 27169

Orbit data source: Space-Track

TITAN 4 CENTAUR R/B, 27169 is space debris in GEO originally from a launch on Mon, 14 Jan 2002 UTC launched from the Air Force Eastern Test Range (AFETR). Debris objects in space refer to the collection of defunct objects orbiting the Earth. Examples of debris include non-operational satellites, rocket bodies, and fragments generated from explosions, collisions, or faulty payload assembly.

Loading next visibility...
Identifier
27169, 2002-001B
Orbit
GEO
Last TLE update
2 days ago
Origin
Manufacturer
LMA
Mission
Spacecraft
Bus & Motor
CENTAUR T, RL-10 X2
Mass
~1,840 kg wet, ~1,840 kg dry
Launch date (UTC)
2002-01-14 (23 years ago)
Launch vehicle
Unknown
Launch site
Air Force Eastern Test Range (AFETR)
Object type
Payload
Rocket body
Debris
Shape & HBR
Cyl, 9 m
Radar Cross Section
37.970 m²

Expand to show TLE details & history

TLE from 2 days ago
0 TITAN 4 CENTAUR R/B
1 27169U 02001B   25190.41780221 -.00000282  00000-0  00000-0 0  9993
2 27169   9.6540  31.7554 0051615 126.9735 233.5265  1.00187343 22947
Epoch: 2025-07-09T10:01Z
TLE epoch observation values (Epoch: 2025-07-09T10:01:38.11Z)
Latitude
0.00003°
Longitude
-46.2294°
Altitude
35,938.8 km
Speed
3.064 km/s
True Right ascension
02h 07m 06s
True Declination
0° 00' 00"
Sunlit
Object was in daylight at epoch
Visualization orbit readout
Latitude
-9.21089°
Longitude
-154.35236°
Altitude
35,937.143 km
Speed
3.065 km/s
Apparent Right ascension
19h 19m 03s
Apparent Declination
-15° 21' 02"
Sunlit
Object is in daylight
Visualization observer readout
Local Sidereal Time
14:58:15
Azimuth
117.853° SE
Elevation
8.069°
Doppler factor
1
Orbital elements
Apogee altitude
36,029.07 km
Perigee altitude
35,593.549 km
Semi-major axis
42,189.447 km
Eccentricity
0.00516
Inclination
9.654°
RAAN
31.7554°
Arg. of periapsis
126.9735°
True anomaly
Unknown
Mean anomaly
233.5265°
Eccentric anomaly
Unknown
Mean motion
0.25046 °/min
Orbital period
1,437.36 mins
BSTAR
0
Loading historical data...
27169 neighbors
Loading maneuver chart data...
Loading SW <> Apogee altitude chart data...
Loading historical data...
Loading historical data...
Loading historical data...
Loading historical data...
Loading historical data...
Loading historical data...
Loading historical data...
Other satellites on launch #1 in the year 2002 (2002-01-14 UTC)

TITAN 4 CENTAUR R/B Visibility forecast

Observer location: undefined°, undefined°

Span
Click to sort rows by Start time (UTC) header in descending order
Start Az.
Max El. time (UTC)
Max El. Az.
Max El.
End time (UTC)
End Az.
1056 mins2025-07-11 07:08:39.671Z115.853° SE2025-07-11 15:24:39.671Z103.802° ESE20.798°2025-07-12 00:44:39.671Z116.281° SE
|